INTELSAT 511 1 15873U 85055A 21060.51729538 -.00000247 00000-0 00000-0 0 9990 2 15873 14.7682 354.0006 0017627 39.1017 236.5094 1.00084276105155 ATLAS CENTAUR R/B 1 15874U 85055B 21060.19035957 .00001170 00000-0 54084-3 0 9999 2 15874 23.2841 32.4667 6553872 124.7407 315.2380 3.21821412373881